Time_in_sec,Latitude,Longitude,Altitude,Nbsat,valid_data
1312468471.57219243,47.37644958,8.55009174,492.78784180,2,1
1312468614.41119909,47.37651062,8.55019474,486.02130127,1,1
1312468614.47210717,47.37651062,8.55019379,486.02185059,1,1
1312468614.52715993,47.37651062,8.55019379,486.22241211,1,1
1312468614.57217216,47.37651062,8.55019379,486.22387695,1,1
1312468614.62309575,47.37651062,8.55019379,486.22525024,1,1
1312468614.66017842,47.37650681,8.55019379,486.22662354,1,1
1312468614.72319603,47.37650681,8.55019379,486.22769165,1,1
1312468614.77118492,47.37650681,8.55019283,486.42297363,1,1
1312468614.82054353,47.37650681,8.55019283,486.42498779,1,1
1312468614.87107015,47.37650681,8.55019283,486.42700195,1,1
1312468614.91115928,47.37650681,8.55019188,486.42895508,1,1
1312468614.97207546,47.37650681,8.55019188,486.43051147,1,1
1312468615.02321196,47.37650681,8.55019188,486.62725830,1,1
1312468615.07220125,47.37650681,8.55019188,486.62988281,1,1
1312468615.12311983,47.37650681,8.55019188,486.63247681,1,1
1312468615.17211413,47.37650681,8.55019188,486.63504028,1,1
1312468615.22310400,47.37650681,8.55019188,486.63757324,1,1
1312468615.27211809,47.37650681,8.55019188,486.83102417,1,1
1312468615.32356691,47.37650681,8.55019188,486.83422852,1,1
1312468615.37202001,47.37650681,8.55019188,486.83740234,1,1
1312468615.41222358,47.37650681,8.55019188,486.84051514,1,1
1312468615.47109437,47.37650681,8.55019188,486.84298706,1,1
1312468615.52312493,47.37650681,8.55019188,487.03469849,1,1
1312468615.57211781,47.37650681,8.55019188,487.03845215,1,1
1312468615.62408471,47.37650681,8.55019188,487.04220581,1,1
1312468615.66410923,47.37650681,8.55019188,487.04589844,1,1
1312468615.72335744,47.37650681,8.55019188,487.04882812,1,1
1312468615.77209783,47.37650681,8.55019188,487.24261475,1,1
1312468615.82479477,47.37650681,8.55019188,487.24697876,1,1
1312468615.87114596,47.37650681,8.55019188,487.25131226,1,1
1312468615.91184449,47.37650681,8.55019188,487.25558472,1,1
1312468615.97109413,47.37650681,8.55019188,487.25897217,1,1
1312468616.02412438,47.37650681,8.55019188,487.45864868,1,1
1312468616.07113004,47.37650299,8.55019188,487.46356201,1,1
1312468616.12321115,47.37650299,8.55019188,487.46844482,1,1
1312468616.17212915,47.37650299,8.55019188,487.47329712,1,1
1312468616.22394228,47.37650299,8.55019188,487.47808838,1,1
1312468616.27246785,47.37650299,8.55019188,487.68283081,1,1
1312468616.32430434,47.37650299,8.55019188,487.68838501,1,1
1312468616.37212467,47.37650299,8.55019188,487.69393921,1,1
1312468616.41120529,47.37650299,8.55019188,487.69940186,1,1
1312468616.47221780,47.37650299,8.55019188,487.70376587,1,1
1312468616.52409291,47.37650299,8.55019283,487.90405273,1,1
1312468616.57118821,47.37650299,8.55019283,487.91021729,1,1
1312468616.62319827,47.37650299,8.55019283,487.91635132,1,1
1312468616.66422033,47.37650299,8.55019283,487.92242432,1,1
1312468616.72316170,47.37650299,8.55019283,487.92724609,1,1
1312468616.77120185,47.37650299,8.55019188,488.12072754,1,1
1312468616.82324052,47.37650299,8.55019188,488.12744141,1,1
1312468616.87120390,47.37650299,8.55019188,488.13412476,1,1
1312468616.91119933,47.37650299,8.55019188,488.14077759,1,1
1312468616.97119164,47.37650299,8.55019188,488.14608765,1,1
1312468617.02168941,47.37650299,8.55019188,488.34063721,1,1
1312468617.07223678,47.37650299,8.55019188,488.34793091,1,1
1312468617.12307835,47.37650299,8.55019188,488.35519409,1,1
1312468617.17216682,47.37650299,8.55019188,488.36242676,1,1
1312468617.22021842,47.37650299,8.55019188,488.36962891,1,1
1312468617.27121019,47.37650299,8.55019188,488.56225586,1,1
1312468617.32412887,47.37650299,8.55019188,488.57012939,1,1
1312468617.37222147,47.37650299,8.55019188,488.57794189,1,1
1312468617.41220880,47.37650299,8.55019188,488.58572388,1,1
1312468617.47215891,47.37650299,8.55019188,488.59188843,1,1
1312468617.52308536,47.37650299,8.55019188,488.77984619,1,1
1312468617.57120943,47.37650299,8.55019188,488.78820801,1,1
1312468617.62326479,47.37650299,8.55019188,488.79656982,1,1
1312468617.66411948,47.37650299,8.55019188,488.80487061,1,1
1312468617.72409391,47.37650299,8.55019188,488.81149292,1,1
1312468617.77111721,47.37650299,8.55019379,488.99276733,1,1
1312468617.82326698,47.37650299,8.55019379,489.00164795,1,1
1312468617.87110567,47.37650299,8.55019379,489.01049805,1,1
1312468617.91216660,47.37650299,8.55019379,489.01931763,1,1
1312468617.97111392,47.37650299,8.55019379,489.02633667,1,1
1312468618.02311277,47.37650299,8.55019379,489.20355225,1,1
1312468618.07107782,47.37650299,8.55019379,489.21295166,1,1
1312468618.12409472,47.37650299,8.55019379,489.22232056,1,1
1312468618.17107582,47.37650299,8.55019379,489.23162842,1,1
1312468618.22309017,47.37650299,8.55019474,489.24093628,1,1
1312468618.27112389,47.37650299,8.55019379,489.40728760,1,1
1312468618.32482076,47.37650299,8.55019379,489.41714478,1,1
1312468618.37118030,47.37650299,8.55019379,489.42697144,1,1
1312468618.41212296,47.37650299,8.55019379,489.43673706,1,1
1312468618.47129416,47.37650299,8.55019379,489.44448853,1,1
1312468618.52312255,47.37650299,8.55019379,489.60922241,1,1
1312468618.57154274,47.37650299,8.55019379,489.61950684,1,1
1312468618.62468123,47.37650299,8.55019379,489.62973022,1,1
1312468618.67220640,47.37650299,8.55019379,489.63995361,1,1
1312468618.72334790,47.37650299,8.55019379,489.65011597,1,1
1312468618.77121997,47.37650299,8.55019283,489.81250000,1,1
1312468618.82421970,47.37650299,8.55019379,489.82327271,1,1
1312468618.87114429,47.37650299,8.55019379,489.83395386,1,1
1312468618.91214299,47.37650299,8.55019379,489.84463501,1,1
1312468618.97109532,47.37650299,8.55019379,489.85311890,1,1
1312468619.02204466,47.37650299,8.55019474,489.99945068,1,1
1312468619.07210326,47.37650299,8.55019474,490.01052856,1,1
1312468619.12312150,47.37650299,8.55019474,490.02160645,1,1
1312468619.17122865,47.37650299,8.55019474,490.03262329,1,1
1312468619.22313857,47.37650299,8.55019569,490.04364014,1,1
1312468619.27223277,47.37650299,8.55019569,490.18374634,1,1
1312468619.32451391,47.37649918,8.55019569,490.19519043,1,1
1312468619.37191391,47.37649918,8.55019569,490.20660400,1,1
1312468619.41120887,47.37649918,8.55019569,490.21798706,1,1
1312468619.47123671,47.37649918,8.55019569,490.22708130,1,1
1312468619.52310538,47.37649918,8.55019474,490.35726929,1,1
1312468619.57115960,47.37649918,8.55019474,490.36904907,1,1
1312468619.62310982,47.37649918,8.55019474,490.38076782,1,1
1312468619.66316247,47.37649918,8.55019474,490.39242554,1,1
1312468619.72310543,47.37649918,8.55019474,490.40176392,1,1
1312468619.77187300,47.37649918,8.55019379,490.53662109,1,1
1312468619.82318211,47.37649918,8.55019379,490.54876709,1,1
1312468619.87124610,47.37649918,8.55019379,490.56085205,1,1
1312468619.91221714,47.37649918,8.55019379,490.57290649,1,1
1312468619.97217703,47.37649918,8.55019379,490.58255005,1,1
1312468620.02023578,47.37649918,8.55019379,490.69320679,1,1
1312468620.07120347,47.37649918,8.55019379,490.70559692,1,1
1312468620.12023473,47.37649918,8.55019379,490.71792603,1,1
1312468620.17119193,47.37649918,8.55019379,490.73022461,1,1
1312468620.22157025,47.37649918,8.55019379,490.74246216,1,1
1312468620.27124190,47.37649918,8.55019379,490.84262085,1,1
1312468620.32009768,47.37649918,8.55019379,490.85516357,1,1
1312468620.37219572,47.37649918,8.55019379,490.86767578,1,1
1312468620.41212106,47.37649918,8.55019474,490.88015747,1,1
1312468620.47213197,47.37649918,8.55019474,490.89010620,1,1
1312468620.52018976,47.37649918,8.55019379,490.98483276,1,1
1312468620.57249546,47.37649918,8.55019379,490.99755859,1,1
1312468620.62218738,47.37649918,8.55019379,491.01022339,1,1
1312468620.66325068,47.37649918,8.55019379,491.02285767,1,1
1312468620.72308517,47.37649918,8.55019474,491.03295898,1,1
1312468620.77211404,47.37649918,8.55019379,491.13119507,1,1
1312468620.82082677,47.37649918,8.55019379,491.14410400,1,1
1312468620.87213278,47.37649918,8.55019379,491.15695190,1,1
1312468620.91210437,47.37649918,8.55019474,491.16979980,1,1
1312468620.97111750,47.37649918,8.55019474,491.18005371,1,1
1312468621.02372503,47.37649918,8.55019379,491.27011108,1,1
1312468621.07112241,47.37649918,8.55019379,491.28317261,1,1
1312468621.12318659,47.37649918,8.55019474,491.29623413,1,1
1312468621.17110538,47.37649918,8.55019474,491.30923462,1,1
1312468621.22310138,47.37649918,8.55019474,491.32217407,1,1
1312468621.27120090,47.37649918,8.55019283,491.40542603,1,1
1312468621.32451057,47.37649918,8.55019283,491.41867065,1,1
1312468621.37112069,47.37649918,8.55019283,491.43185425,1,1
1312468621.41119480,47.37649918,8.55019283,491.44500732,1,1
1312468621.47162724,47.37649918,8.55019283,491.45547485,1,1
1312468621.52422500,47.37649918,8.55019093,491.54138184,1,1
1312468621.57111669,47.37649918,8.55019093,491.55474854,1,1
1312468621.62414694,47.37649918,8.55019093,491.56811523,1,1
1312468621.66325259,47.37649536,8.55019093,491.58142090,1,1
1312468621.72306585,47.37649536,8.55019093,491.59204102,1,1
1312468621.77107430,47.37649918,8.55018997,491.66961670,1,1
1312468621.82450438,47.37649918,8.55018997,491.68313599,1,1
1312468621.87109900,47.37649536,8.55018997,491.69662476,1,1
1312468621.91212511,47.37649536,8.55018997,491.71008301,1,1
1312468621.97112846,47.37649536,8.55018997,491.72079468,1,1
1312468622.02308750,47.37649918,8.55018806,491.77169800,1,1
1312468622.07119393,47.37649918,8.55018806,491.78521729,1,1
1312468622.12310672,47.37649536,8.55018806,491.79867554,1,1
1312468622.17120099,47.37649536,8.55018806,491.81210327,1,1
1312468622.22226000,47.37649536,8.55018806,491.82550049,1,1
1312468622.27110505,47.37649918,8.55018806,491.86016846,1,1
1312468622.32405353,47.37649918,8.55018806,491.87362671,1,1
1312468622.37122583,47.37649918,8.55018806,491.88702393,1,1
1312468622.41214824,47.37649536,8.55018806,491.90039062,1,1
1312468622.47128630,47.37649536,8.55018806,491.91104126,1,1
1312468622.52351165,47.37649918,8.55018902,491.92852783,1,1
1312468622.57118630,47.37649918,8.55018902,491.94183350,1,1
1312468622.62307763,47.37649536,8.55018902,491.95507812,1,1
1312468622.66414118,47.37649536,8.55018997,491.96832275,1,1
1312468622.72312140,47.37649536,8.55018997,491.97888184,1,1
1312468622.77120709,47.37649918,8.55018997,491.99108887,1,1
1312468622.82307053,47.37649918,8.55018997,492.00424194,1,1
1312468622.87112927,47.37649918,8.55018997,492.01736450,1,1
1312468622.91267729,47.37649536,8.55018997,492.03042603,1,1
1312468622.97119522,47.37649536,8.55018997,492.04086304,1,1
1312468623.02184701,47.37649918,8.55018997,492.02752686,1,1
1312468623.07120085,47.37649918,8.55018997,492.04037476,1,1
1312468623.12025261,47.37649918,8.55018997,492.05322266,1,1
1312468623.17120504,47.37649536,8.55018997,492.06600952,1,1
1312468623.22332096,47.37649536,8.55018997,492.07876587,1,1
1312468623.27111888,47.37649918,8.55018997,492.05166626,1,1
1312468623.32339120,47.37649536,8.55018997,492.06427002,1,1
1312468623.37112141,47.37649536,8.55018997,492.07681274,1,1
1312468623.42014122,47.37649536,8.55018997,492.08932495,1,1
1312468623.47111034,47.37649536,8.55018997,492.10180664,1,1
1312468623.52325249,47.37649918,8.55018902,492.05731201,1,1
1312468623.57112837,47.37649918,8.55018902,492.06948853,1,1
1312468623.62310529,47.37649536,8.55018902,492.08160400,1,1
1312468623.66006279,47.37649536,8.55018902,492.09371948,1,1
1312468623.72012997,47.37649536,8.55018902,492.10336304,1,1
1312468623.77210093,47.37649918,8.55018902,492.05270386,1,1
1312468623.82443523,47.37649918,8.55018902,492.06442261,1,1
1312468623.87111855,47.37649536,8.55018902,492.07614136,1,1
1312468623.91287112,47.37649536,8.55018902,492.08782959,1,1
1312468623.97112679,47.37649536,8.55018902,492.09716797,1,1
1312468624.02309346,47.37649536,8.55018806,492.03955078,1,1
1312468624.07210708,47.37649536,8.55018806,492.05087280,1,1
1312468624.12345314,47.37649536,8.55018806,492.06213379,1,1
1312468624.16422272,47.37649536,8.55018902,492.07336426,1,1
1312468624.22323942,47.37649536,8.55018902,492.08233643,1,1
1312468624.27112460,47.37649536,8.55018711,492.01318359,1,1
1312468624.32335687,47.37649536,8.55018711,492.02401733,1,1
1312468624.37107491,47.37649536,8.55018711,492.03479004,1,1
1312468624.41225624,47.37649536,8.55018711,492.04553223,1,1
1312468624.47111773,47.37649536,8.55018806,492.05407715,1,1
1312468624.52349710,47.37649536,8.55018616,491.98849487,1,1
1312468624.57111001,47.37649536,8.55018616,491.99887085,1,1
1312468624.62393498,47.37649536,8.55018616,492.00918579,1,1
1312468624.66327429,47.37649536,8.55018616,492.01950073,1,1
1312468624.72410131,47.37649536,8.55018616,492.02767944,1,1
1312468624.77220750,47.37649536,8.55018616,491.95239258,1,1
1312468624.82576656,47.37649536,8.55018616,491.96224976,1,1
1312468624.87222433,47.37649536,8.55018616,491.97207642,1,1
1312468624.91165876,47.37649536,8.55018616,491.98187256,1,1
1312468624.97220492,47.37649536,8.55018616,491.98968506,1,1
1312468625.02321744,47.37649536,8.55018520,491.91394043,1,1
1312468625.07119226,47.37649536,8.55018520,491.92330933,1,1
1312468625.12410069,47.37649536,8.55018520,491.93267822,1,1
1312468625.16421676,47.37649536,8.55018520,491.94198608,1,1
1312468625.22307873,47.37649536,8.55018520,491.94943237,1,1
1312468625.27112579,47.37649536,8.55018425,491.86410522,1,1
1312468625.32319450,47.37649536,8.55018425,491.87295532,1,1
1312468625.37111187,47.37649536,8.55018425,491.88180542,1,1
1312468625.41119289,47.37649536,8.55018425,491.89056396,1,1
1312468625.47109938,47.37649536,8.55018425,491.89755249,1,1
1312468625.52309799,47.37649536,8.55018425,491.80517578,1,1
1312468625.57209682,47.37649536,8.55018425,491.81344604,1,1
1312468625.62319779,47.37649536,8.55018425,491.82168579,1,1
1312468625.66412210,47.37649536,8.55018330,491.82989502,1,1
1312468625.71612787,47.37649536,8.55018330,491.83645630,1,1
1312468625.77157617,47.37649536,8.55018330,491.73492432,1,1
1312468625.82038856,47.37649536,8.55018330,491.74414062,1,1
1312468625.87119675,47.37649536,8.55018330,491.75180054,1,1
1312468625.91118455,47.37649536,8.55018330,491.75946045,1,1
1312468625.97119498,47.37649536,8.55018330,491.76553345,1,1
1312468626.02027583,47.37649536,8.55018330,491.66549683,1,1
1312468626.07164645,47.37649536,8.55018330,491.67266846,1,1
1312468626.12308025,47.37649536,8.55018330,491.67980957,1,1
1312468626.17177343,47.37649536,8.55018330,491.68688965,1,1
1312468626.22510529,47.37649536,8.55018330,491.69393921,1,1
1312468626.27121282,47.37649536,8.55018330,491.59487915,1,1
1312468626.32021165,47.37649536,8.55018330,491.60147095,1,1
1312468626.37221551,47.37649536,8.55018330,491.60803223,1,1
1312468626.41211319,47.37649536,8.55018330,491.61453247,1,1
1312468626.47121143,47.37649536,8.55018330,491.61972046,1,1
1312468626.52321315,47.37649536,8.55018425,491.51492310,1,1
1312468626.57115459,47.37649536,8.55018425,491.52093506,1,1
1312468626.62011456,47.37649536,8.55018425,491.52691650,1,1
1312468626.66347170,47.37649536,8.55018425,491.53286743,1,1
1312468626.72014928,47.37649536,8.55018425,491.53759766,1,1
1312468626.77213717,47.37649536,8.55018520,491.43865967,1,1
1312468626.82309747,47.37649536,8.55018520,491.44412231,1,1
1312468626.87114429,47.37649536,8.55018520,491.44952393,1,1
1312468626.91115522,47.37649536,8.55018520,491.45492554,1,1
1312468626.97222853,47.37649536,8.55018520,491.45919800,1,1
1312468627.02710128,47.37649536,8.55018520,491.36056519,1,1
1312468627.07221961,47.37649536,8.55018520,491.36550903,1,1
1312468627.12308455,47.37649536,8.55018520,491.37036133,1,1
1312468627.17220378,47.37649536,8.55018520,491.37521362,1,1
1312468627.22310305,47.37649536,8.55018520,491.38000488,1,1
1312468627.27203536,47.37649536,8.55018520,491.27658081,1,1
1312468627.32308769,47.37649536,8.55018520,491.28094482,1,1
1312468627.37194896,47.37649536,8.55018616,491.28524780,1,1
1312468627.41224837,47.37649536,8.55018616,491.28955078,1,1
1312468627.47220612,47.37649536,8.55018616,491.29293823,1,1
1312468627.52320766,47.37649536,8.55018616,491.18881226,1,1
1312468627.57156301,47.37649536,8.55018616,491.19256592,1,1
1312468627.62420678,47.37649155,8.55018616,491.19628906,1,1
1312468627.66310668,47.37649155,8.55018616,491.19995117,1,1
1312468627.72306490,47.37649155,8.55018616,491.20285034,1,1
1312468627.77112436,47.37649536,8.55018520,491.10452271,1,1
1312468627.82203078,47.37649536,8.55018520,491.10769653,1,1
1312468627.87120128,47.37649536,8.55018520,491.11087036,1,1
1312468627.91158962,47.37649155,8.55018520,491.11398315,1,1
1312468627.97113442,47.37649155,8.55018520,491.11645508,1,1
1312468628.02308798,47.37649536,8.55018520,491.01925659,1,1
1312468628.07156086,47.37649536,8.55018520,491.02188110,1,1
1312468628.12409329,47.37649536,8.55018520,491.02447510,1,1
1312468628.17161584,47.37649536,8.55018520,491.02703857,1,1
1312468628.22168875,47.37649536,8.55018520,491.02957153,1,1
1312468628.27221107,47.37649536,8.55018520,490.93762207,1,1
1312468628.32310200,47.37649536,8.55018520,490.93969727,1,1
1312468628.37119126,47.37649536,8.55018520,490.94177246,1,1
1312468628.41111159,47.37649536,8.55018520,490.94381714,1,1
1312468628.47201967,47.37649536,8.55018520,490.94540405,1,1
1312468628.52412391,47.37649536,8.55018616,490.85839844,1,1
1312468628.57221079,47.37649536,8.55018616,490.85998535,1,1
1312468628.62309361,47.37649536,8.55018616,490.86151123,1,1
1312468628.66419649,47.37649536,8.55018616,490.86300659,1,1
1312468628.72308779,47.37649536,8.55018616,490.86413574,1,1
1312468628.77214456,47.37649536,8.55018711,490.78753662,1,1
1312468628.82311106,47.37649536,8.55018711,490.78863525,1,1
1312468628.87228799,47.37649536,8.55018711,490.78970337,1,1
1312468628.91213894,47.37649536,8.55018711,490.79077148,1,1
1312468628.97119427,47.37649536,8.55018711,490.79156494,1,1
1312468629.02031469,47.37649536,8.55018806,490.71755981,1,1
1312468629.07121992,47.37649536,8.55018806,490.71820068,1,1
1312468629.12413073,47.37649536,8.55018806,490.71884155,1,1
1312468629.17212820,47.37649536,8.55018806,490.71942139,1,1
1312468629.22325087,47.37649536,8.55018806,490.71994019,1,1
1312468629.27109885,47.37649536,8.55018997,490.65411377,1,1
1312468629.32306266,47.37649536,8.55018997,490.65435791,1,1
1312468629.37107301,47.37649536,8.55018997,490.65454102,1,1
1312468629.41211009,47.37649536,8.55018997,490.65469360,1,1
1312468629.47220206,47.37649536,8.55018997,490.65481567,1,1
1312468629.52306533,47.37649536,8.55018997,490.58724976,1,1
1312468629.57106662,47.37649536,8.55018997,490.58703613,1,1
1312468629.62319970,47.37649536,8.55018997,490.58679199,1,1
1312468629.66309333,47.37649536,8.55018997,490.58651733,1,1
1312468629.72310877,47.37649536,8.55018997,490.58627319,1,1
1312468629.77137995,47.37649536,8.55018997,490.52902222,1,1
1312468629.82166600,47.37649536,8.55018997,490.52847290,1,1
1312468629.87217045,47.37649536,8.55018997,490.52789307,1,1
1312468629.91219378,47.37649536,8.55018997,490.52725220,1,1
1312468629.97222304,47.37649536,8.55018997,490.52673340,1,1
1312468630.02349639,47.37649536,8.55019093,490.46661377,1,1
1312468630.07130837,47.37649536,8.55019093,490.46566772,1,1
1312468630.12413573,47.37649536,8.55018997,490.46469116,1,1
1312468630.17209935,47.37649536,8.55018997,490.46368408,1,1
1312468630.22311592,47.37649536,8.55018997,490.46261597,1,1
1312468630.27107906,47.37649536,8.55019093,490.39892578,1,1
1312468630.32407808,47.37649536,8.55019093,490.39755249,1,1
1312468630.37107038,47.37649536,8.55019093,490.39614868,1,1
1312468630.41220760,47.37649536,8.55019093,490.39468384,1,1
1312468630.47199440,47.37649536,8.55019093,490.39349365,1,1
1312468630.52317286,47.37649536,8.55019188,490.33007812,1,1
1312468630.57119417,47.37649536,8.55019188,490.32830811,1,1
1312468630.62196827,47.37649536,8.55019188,490.32647705,1,1
1312468630.66409588,47.37649536,8.55019188,490.32461548,1,1
1312468630.72411156,47.37649536,8.55019188,490.32312012,1,1
1312468630.77119350,47.37649536,8.55019379,490.25103760,1,1
1312468630.82409143,47.37649536,8.55019379,490.24884033,1,1
1312468630.87120318,47.37649536,8.55019379,490.24661255,1,1
1312468630.91135931,47.37649536,8.55019379,490.24438477,1,1
1312468630.97174382,47.37649536,8.55019379,490.24255371,2,1
1312468631.02309608,47.37649155,8.55019379,490.16912842,2,1
1312468631.07211232,47.37649155,8.55019379,490.16650391,2,1
1312468631.12308693,47.37649155,8.55019379,490.16381836,2,1
1312468631.17210317,47.37649155,8.55019379,490.16110229,2,1
1312468631.22412610,47.37649155,8.55019379,490.15838623,2,1
1312468631.27220464,47.37649155,8.55019474,490.08593750,2,1
1312468631.32310510,47.37649155,8.55019474,490.08288574,2,1
1312468631.37118506,47.37649155,8.55019474,490.07977295,2,1
1312468631.41119933,47.37649155,8.55019474,490.07659912,2,1
1312468631.47207952,47.37649155,8.55019474,490.07406616,2,1
1312468631.52310991,47.37649155,8.55019569,489.99826050,2,1
1312468631.57107520,47.37649155,8.55019569,489.99472046,2,1
1312468631.62358332,47.37649155,8.55019569,489.99114990,2,1
1312468631.66320515,47.37649155,8.55019569,489.98757935,2,1
1312468631.72317648,47.37649155,8.55019569,489.98468018,2,1
1312468631.77208662,47.37649155,8.55019665,489.90554810,2,1
1312468631.82035232,47.37649155,8.55019665,489.90158081,2,1
1312468631.87112617,47.37649155,8.55019665,489.89755249,2,1
1312468631.91211128,47.37649155,8.55019665,489.89352417,2,1
1312468631.97107911,47.37649155,8.55019665,489.89022827,2,1
1312468632.02422857,47.37649155,8.55019760,489.81835938,2,1
1312468632.07126999,47.37649155,8.55019760,489.81393433,2,1
1312468632.12345815,47.37649155,8.55019760,489.80950928,2,1
1312468632.17137027,47.37649155,8.55019760,489.80502319,2,1
1312468632.22385669,47.37649155,8.55019760,489.80050659,2,1
1312468632.27110529,47.37649155,8.55019951,489.73034668,2,1
1312468632.32351518,47.37649155,8.55019951,489.72552490,2,1
1312468632.37172413,47.37649155,8.55019951,489.72061157,2,1
1312468632.41219950,47.37649155,8.55019951,489.71569824,2,1
1312468632.47107792,47.37649155,8.55019951,489.71170044,2,1
1312468632.52018690,47.37649155,8.55020046,489.63433838,2,1
1312468632.57108998,47.37649155,8.55020046,489.62902832,2,1
1312468632.62007260,47.37649155,8.55020046,489.62365723,2,1
1312468632.66347384,47.37649155,8.55020046,489.61822510,2,1
1312468632.72307730,47.37649155,8.55020046,489.61386108,2,1
1312468632.77148700,47.37649155,8.55020142,489.53424072,2,1
1312468632.82347202,47.37649155,8.55020142,489.52841187,2,1
1312468632.87110019,47.37649155,8.55020142,489.52252197,2,1
1312468632.92323637,47.37649155,8.55020142,489.51660156,2,1
1312468632.97122073,47.37649155,8.55020142,489.51065063,2,1
1312468633.02707481,47.37649155,8.55020142,489.43200684,2,1
1312468633.07509303,47.37649155,8.55020142,489.42568970,2,1
1312468633.12350798,47.37649155,8.55020142,489.41931152,2,1
